Showing default

HORIZON GORIZONT, 61757

Orbit data source: Space-Track

HORIZON GORIZONT, 61757 is a payload satellite owned by BGTU (CIS) in SSO that was launched on Mon, 04 Nov 2024 UTC via a SOYUZ-2-1B launch vehicle from the Vostochny Cosmodrome (VOSTO). Payload-class satellites include a variety of spacecraft equipped with specific instruments for various scientific and technological missions. These include communications satellites like Starlink; space stations such as the ISS; scientific satellites like the Hubble; Earth observation satellites from companies like Planet Labs, Umbra, and HawkEye 360; GPS; miniature CubeSats for education and research; and military/defense satellites.

Loading next visibility...
Identifier
61757, 2024-199Y
Orbit
SSO
Country
Flag of CISCIS
Related business
Manufacturer
Geoskan
Mission
Operational Amateur Technology
Bus & Motor
CUBESAT 3U, Unknown motor
Mass
3 kg wet, 3 kg dry
Launch date (UTC)
2024-11-04 (1 year ago)
Launch vehicle
SOYUZ-2-1B
Launch site
Vostochny Cosmodrome (VOSTO)
Object type
Payload
Rocket body
Debris
Shape & HBR
Box, 0.1 m
Radar Cross Section
0.035 m², Small (<0.1 m²)

Expand to show TLE details & history
Last TLE update: 11 hours ago

TLE from 11 hours ago
0 HORIZON GORIZONT
1 61757U 24199Y   26093.91851699  .00333096  00000-0  17885-2 0  9994
2 61757  97.2991 333.9925 0006369 150.0993 210.0639 15.79338506126399
Epoch: 2026-04-03T22:02Z
TLE epoch observation values (Epoch: 2026-04-03T22:02:39.867Z)
Latitude
-0.00009°
Longitude
171.08065°
Altitude
339.188 km
Speed
7.703 km/s
True Right ascension
22h 15m 58s
True Declination
0° 00' 00"
Sunlit
Object was in daylight at epoch
Visualization orbit readout
Latitude
Unknown
Longitude
Unknown
Altitude
Unknown
Speed
Unknown
Apparent Right ascension
Unknown
Apparent Declination
Unknown
Sunlit
N/A
Visualization observer readout
Local Sidereal Time
14:28:38
Azimuth
Unknown
Elevation
Unknown
Doppler factor
Unknown
Orbital elements
Apogee altitude
333.468 km
Perigee altitude
324.924 km
Semi-major axis
6,707.333 km
Eccentricity
0.00064
Inclination
97.2991°
RAAN
333.9925°
Arg. of periapsis
150.0993°
True anomaly
210.02736°
Mean anomaly
210.0639°
Eccentric anomaly
210.04563°
Mean motion
3.9511 °/min
Orbital period
91.11 mins
BSTAR
0.0017885
Loading maneuver chart data...
Computing Atmospheric mass density...
Loading historical data...
Loading historical data...
Loading historical data...
Loading historical data...
Loading historical data...
Loading historical data...
Loading historical data...

Documentation

Showing up to 5 results
|